Location: Knowlton
(51.2333°N, 1.2667°E)
Time: 03:58:03
(UTC+00:00)

Cosmos 614 Rocket - Pass Details

Date: 18 April 2021
Orbit: 734 x 762 km, 74.1° (Epoch: 06 May)

Event Time Altitude Azimuth Distance (km) Brightness Sun altitude
Rises 20:29:52 0° 192° (SSW) 3,187 7.0 -13.6°
Reaches altitude 10° 20:32:14 10° 190° (S) 2,262 6.2 -13.9°
Maximum altitude 20:37:18 64° 110° (ESE) 827 3.9 -14.5°
Drops below altitude 10° 20:42:21 10° 30° (NNE) 2,261 6.6 -15.1°
Sets 20:44:43 0° 27° (NNE) 3,185 7.4 -15.4°
